Location: Schommer Observatory
(40.5200°N, 74.4500°W)
Time: 08:34:01
(UTC-04:00)

N. Korean satellite - Pass Details

Date: 12 October 2017
Orbit: 459 x 517 km, 97.2° (Epoch: 19 October)

Event Time Altitude Azimuth Distance (km) Brightness Sun altitude
Rises 20:10:16 0° 214° (SW) 2,557 10.6 -21.4°
Reaches altitude 10° 20:13:46 10° 251° (WSW) 1,667 10.1 -22.0°
Maximum altitude 20:14:51 11° 269° (W) 1,597 10.2 -22.2°
Drops below altitude 10° 20:15:55 10° 286° (WNW) 1,661 10.4 -22.4°
Sets 20:19:24 0° 323° (NW) 2,532 10.9 -23.1°
